Theta_e
329 329 329 330 326 324 327 328 324 327 326 328 327 326 328 335 333 331 336 336 335 334 335 334 333 331 322 321 327 330 329 330 328 323 320 318 316 314 312 313 313 312 311 325 326 321 319 321 319
329 330 329 329 326 328 328 324 328 326 327 327 328 328 331 333 335 335 337 337 336 334 334 335 335 325 320 321 322 330 332 329 328 323 319 316 314 313 311 310 310 310 310 316 322 321 320 319 318
330 330 329 323 324 328 328 325 325 326 328 325 330 331 332 336 333 334 335 336 336 334 334 335 333 322 318 319 321 324 333 330 326 318 315 312 311 310 310 309 309 309 309 311 313 321 325 322 319
330 329 326 325 329 326 325 323 324 326 327 326 326 328 331 333 334 333 334 335 335 334 334 334 330 323 319 316 318 322 324 321 319 315 317 314 312 310 310 309 309 309 309 309 312 320 327 321 317
330 328 324 326 327 325 323 324 326 324 326 329 328 331 330 333 334 334 334 335 335 334 334 332 330 327 321 318 315 317 324 323 318 323 319 320 316 312 311 310 309 309 309 309 309 312 315 317 316
329 325 325 328 328 326 324 326 326 327 329 329 327 331 331 327 331 331 334 334 334 333 334 332 330 328 326 321 318 314 315 319 319 325 328 323 321 319 318 316 314 312 310 309 309 309 311 313 312
325 322 325 325 327 328 326 326 327 326 327 328 327 329 331 327 329 332 334 333 334 335 333 330 331 330 328 326 322 318 314 315 318 320 330 326 320 322 322 321 320 316 312 311 309 309 309 310 310
325 320 325 326 327 329 325 326 328 327 329 329 329 327 329 324 327 332 334 334 334 333 333 331 330 329 328 327 327 324 321 317 314 315 318 321 319 321 322 318 318 321 319 315 313 312 311 310 310
323 323 325 326 327 328 326 326 327 328 330 330 331 327 324 321 325 327 329 330 330 329 327 324 325 328 327 326 326 327 327 324 322 319 317 316 316 316 317 319 320 320 322 320 317 315 313 314 314
320 323 324 321 323 325 325 326 327 329 330 331 331 327 324 322 322 323 323 324 324 324 324 324 323 322 322 321 321 321 322 325 325 325 325 324 321 319 317 316 318 320 319 319 317 316 316 315 314
320 323 322 321 322 324 324 325 325 327 327 330 330 326 325 324 324 324 324 324 324 325 325 325 325 325 325 325 325 325 324 324 324 324 323 323 325 326 323 320 318 318 318 319 321 321 321 319 318
322 321 322 322 322 323 323 324 324 327 327 327 329 326 325 324 324 324 324 323 323 323 324 324 325 324 324 324 324 324 324 324 324 324 325 326 326 324 325 325 323 321 320 319 321 322 322 322 321
322 321 322 322 323 323 322 321 322 326 325 328 328 326 325 325 324 324 324 324 324 324 325 324 324 323 323 323 324 324 323 323 323 323 323 324 324 325 327 327 325 325 325 324 323 323 323 323 323
321 322 321 322 322 322 322 322 323 324 324 327 327 325 325 324 324 324 323 324 324 325 325 326 324 323 323 323 323 322 322 322 321 321 321 321 322 323 325 326 328 328 327 326 326 326 325 325 324
322 322 320 321 321 321 322 322 320 323 323 327 328 326 326 325 324 323 324 324 324 325 325 325 324 325 324 323 322 322 322 322 321 320 321 321 322 322 323 325 327 328 330 330 328 327 326 326 325
321 318 321 320 320 321 321 320 318 321 323 325 328 328 327 327 326 325 325 324 324 325 325 325 324 324 324 323 322 322 322 322 322 322 323 323 324 324 325 326 327 330 328 328 327 327 329 328 327
317 320 321 321 319 320 320 320 318 320 320 322 324 326 326 327 326 326 325 324 324 324 325 325 323 323 323 323 322 322 321 320 320 321 322 321 322 323 325 327 328 326 328 328 327 327 327 326 326
321 321 320 320 318 318 319 320 318 320 318 319 320 321 322 322 323 324 324 324 323 324 324 325 323 323 323 323 323 320 319 319 320 320 320 319 318 317 318 322 329 326 325 327 326 326 326 326 326
318 320 318 318 317 318 316 317 318 317 317 318 319 321 320 320 320 320 320 322 323 323 323 324 323 323 323 322 320 319 319 319 320 319 316 315 314 314 317 321 328 325 325 326 326 327 326 326 326
319 319 319 317 316 317 316 315 314 314 315 317 318 318 319 320 321 321 321 320 321 321 323 322 322 323 322 320 319 318 319 319 318 316 314 314 315 315 317 324 324 324 326 328 326 327 326 326 326
320 319 317 318 317 315 313 314 313 313 314 316 317 318 318 319 319 320 321 322 321 321 322 322 321 320 320 319 318 318 318 317 316 313 313 314 315 315 318 324 325 325 323 323 324 325 325 325 324
320 317 317 319 319 318 312 313 311 310 309 312 314 315 315 316 318 318 320 321 321 320 320 320 319 319 319 318 318 317 316 314 312 313 314 315 316 317 320 322 324 323 325 325 325 322 322 323 324
317 316 318 318 318 316 316 315 311 310 310 309 310 313 314 314 315 316 316 317 316 316 316 318 318 318 318 317 317 316 313 312 313 314 316 317 317 320 324 323 324 323 325 323 321 322 322 322 322
315 315 315 313 314 314 313 313 308 308 310 309 310 312 312 313 313 313 313 314 314 316 316 316 317 317 317 316 315 313 312 313 314 315 317 319 321 324 325 323 321 322 322 322 324 323 323 325 324
315 315 315 315 311 313 309 312 310 309 309 309 310 313 313 314 313 313 314 313 314 316 315 315 315 316 316 315 313 312 312 313 313 314 315 321 323 324 323 321 321 323 321 324 322 324 323 322 322
315 315 314 315 317 312 310 314 312 310 310 311 310 311 311 312 312 312 313 314 314 314 314 314 314 314 313 312 311 312 312 312 313 313 313 319 320 319 320 320 323 322 322 322 320 319 318 319 318
316 318 313 312 299 307 309 307 306 306 306 309 311 310 311 313 313 312 313 313 314 314 314 314 313 312 311 311 311 311 311 311 311 312 313 316 317 317 318 318 317 317 318 318 317 317 316 314 315
315 313 316 310 311 308 309 308 310 308 307 306 307 308 311 312 312 313 313 313 314 314 313 312 311 311 310 310 311 311 310 310 310 310 311 313 315 315 316 316 316 316 316 313 309 308 307 307 307
314 316 316 315 313 312 309 308 303 307 306 306 306 310 311 311 312 312 313 313 313 313 313 312 312 311 310 310 310 310 309 309 309 309 309 309 311 313 314 314 313 310 307 305 303 301 301 300 300
312 313 316 318 312 308 309 315 305 304 304 306 308 311 311 312 312 312 312 312 313 313 313 312 312 311 311 310 309 309 309 309 308 308 307 307 307 307 307 306 304 302 300 299 299 298 297 296 296
Wind_Speed
7 3 5 6 4 5 1 2 2 2 2 3 6 4 6 5 2 3 18 11 11 13 14 11 8 5 6 8 11 11 6 6 3 4 4 4 3 4 5 5 4 4 6 8 4 1 2 4 4
6 1 7 3 4 4 3 2 3 2 11 13 10 6 6 2 3 9 16 11 12 12 13 12 7 4 6 7 10 11 8 6 5 2 3 4 5 4 4 4 3 4 5 7 6 4 2 2 3
3 3 3 4 4 4 5 3 5 6 11 2 5 7 3 2 5 14 10 12 13 12 10 10 7 5 5 6 9 11 12 9 6 4 1 3 4 4 4 3 3 4 4 5 5 3 2 2 2
1 3 4 4 3 2 6 6 5 9 1 2 10 6 4 3 7 7 11 12 11 12 11 9 6 4 4 5 7 9 10 8 6 5 3 2 3 2 2 2 2 1 1 3 5 5 4 2 3
2 2 4 4 1 3 2 11 14 6 5 5 3 4 3 5 5 5 11 11 9 12 11 9 7 4 3 3 5 6 7 6 5 5 3 0 1 2 1 1 1 2 2 1 3 5 6 5 4
3 3 4 3 3 2 3 11 9 4 5 7 7 5 2 6 6 10 10 9 7 8 10 10 8 5 4 3 3 5 6 6 6 6 6 3 4 3 2 1 1 2 3 3 4 4 6 7 7
5 4 4 5 4 2 5 11 10 9 8 4 10 5 6 8 11 11 10 9 6 5 5 8 8 6 5 4 4 4 5 7 7 7 7 6 7 6 5 4 3 3 3 4 4 5 5 6 7
2 4 4 2 5 3 6 7 10 12 3 12 5 6 5 13 15 14 12 9 7 5 4 7 8 7 6 5 5 4 4 4 6 7 7 9 9 8 7 6 6 6 6 6 5 6 6 7 8
2 4 3 6 7 4 10 4 8 6 12 6 5 7 11 16 17 16 14 12 10 7 6 5 7 7 7 7 7 7 6 6 6 7 7 8 8 9 9 9 9 9 9 9 9 8 8 8 8
4 3 6 4 4 5 8 7 13 7 8 3 7 10 16 17 17 16 15 12 10 9 7 5 4 4 5 4 4 5 6 6 7 7 9 10 11 11 12 12 13 12 12 12 11 10 10 11 10
2 3 1 1 2 7 9 7 5 12 3 10 17 17 20 19 18 16 14 12 9 7 9 7 7 7 6 6 6 5 5 5 7 7 8 10 12 13 14 15 15 15 14 13 12 12 12 12 12
2 3 2 2 3 5 9 8 4 12 3 8 14 16 19 20 19 18 17 15 13 9 8 8 7 9 8 8 8 7 8 7 8 9 11 12 12 13 15 16 16 17 16 16 15 15 14 14 13
3 4 4 4 6 8 8 4 3 13 6 8 15 20 19 19 18 17 15 14 13 13 10 8 8 8 8 10 10 10 10 10 10 11 13 14 15 15 15 16 17 17 17 18 17 17 17 16 15
2 2 3 3 2 3 4 1 1 5 8 9 17 21 21 20 18 18 17 15 15 14 12 11 12 11 12 12 11 12 12 12 13 13 13 15 16 17 18 19 18 18 18 18 19 19 19 18 18
2 2 3 2 1 1 4 3 7 4 8 9 17 21 21 20 20 20 17 17 15 15 14 15 15 16 16 15 15 16 16 17 17 18 17 18 19 19 20 20 20 20 19 18 19 19 20 21 19
3 4 3 2 2 1 5 7 12 12 10 13 14 19 21 22 23 22 20 21 20 21 19 18 18 19 19 19 18 19 20 23 24 25 25 24 25 24 24 24 22 21 23 22 22 22 21 22 21
6 3 3 5 11 3 4 7 9 11 13 19 19 20 23 25 25 26 25 25 25 26 26 24 23 23 23 21 21 22 23 26 27 29 29 29 29 29 29 27 24 21 24 25 24 24 23 22 20
5 4 5 6 2 3 4 8 9 9 7 16 19 24 28 29 32 31 31 31 32 30 30 28 26 26 26 25 24 24 26 25 28 29 31 32 32 30 29 29 26 21 24 24 24 25 26 26 25
2 1 4 2 2 1 6 7 14 13 11 20 27 28 25 27 28 28 27 32 32 33 32 33 31 28 27 26 24 25 26 26 29 32 33 33 29 27 26 27 25 24 23 24 25 24 24 27 26
1 2 3 4 2 1 5 8 11 12 10 23 26 27 31 33 32 30 25 24 28 34 36 34 32 29 27 26 24 25 27 29 31 32 31 29 27 24 25 25 26 25 24 23 24 26 26 25 27
1 4 3 4 5 1 5 9 7 9 10 21 28 33 35 37 36 38 38 34 31 30 32 31 29 28 27 25 25 26 28 30 32 29 29 27 26 23 22 23 23 22 23 24 25 24 23 26 29
5 6 5 2 2 5 2 8 4 3 8 5 20 29 36 39 40 38 34 33 32 31 31 32 30 28 26 25 25 26 28 27 27 27 26 23 21 20 20 21 21 22 24 25 23 21 22 24 26
4 5 6 5 3 3 1 4 4 2 5 10 19 31 34 33 31 29 30 32 28 27 34 34 31 27 25 23 24 25 26 25 24 23 22 21 18 17 17 17 19 20 22 23 25 24 23 23 24
5 5 5 4 3 4 7 6 5 5 6 5 9 17 18 20 20 20 22 25 27 25 26 29 28 25 23 23 23 24 23 21 21 21 19 17 16 16 17 18 19 21 23 22 20 23 20 17 18
2 6 1 2 1 6 3 6 13 8 9 6 12 22 21 20 20 19 20 18 19 20 22 25 25 23 22 22 22 21 20 19 20 19 17 15 16 18 19 19 22 19 18 18 16 17 21 20 20
6 6 4 7 4 4 1 7 6 5 14 21 16 17 19 18 19 17 15 12 13 16 19 21 21 20 19 20 19 19 19 18 18 18 17 17 18 18 18 20 19 20 20 21 22 23 24 23 21
4 10 5 4 2 2 4 6 8 6 10 17 19 15 16 19 18 15 12 11 11 14 16 18 18 18 19 19 19 18 18 18 18 18 18 19 21 21 22 22 24 25 26 25 22 21 19 17 17
6 6 3 1 2 4 5 5 6 7 8 6 10 14 13 14 15 15 14 12 11 13 15 18 19 20 20 20 20 19 19 19 19 19 20 21 22 23 23 23 24 23 22 20 17 16 15 16 16
3 3 3 4 5 4 2 5 7 7 6 7 7 7 10 12 14 14 15 14 14 16 19 20 22 23 22 21 22 21 21 21 21 22 22 22 22 22 22 22 21 20 19 17 17 16 16 17 17
6 5 9 5 3 2 2 15 4 8 6 5 2 8 8 9 10 14 20 20 19 20 22 25 25 24 24 24 25 26 25 25 25 25 24 24 22 22 22 21 21 20 19 18 19 19 19 19 19
Wind_Direction
334 339 167 160 70 70 93 216 302 124 69 69 122 136 142 62 132 190 144 146 148 163 164 169 171 153 146 154 156 154 159 167 175 154 152 159 171 188 204 205 205 205 191 196 205 278 315 297 318
337 145 157 134 90 88 264 247 179 211 139 109 87 83 57 80 90 144 153 148 145 163 172 166 167 148 147 153 164 162 163 192 189 236 228 206 179 178 192 194 197 182 171 199 220 243 273 308 334
320 165 203 95 110 147 173 184 159 143 138 78 108 77 86 67 104 148 163 157 150 166 169 159 163 142 135 154 168 178 177 200 235 254 190 123 144 141 150 158 169 151 175 187 194 189 196 289 345
256 155 70 83 129 196 164 160 153 144 206 99 119 71 94 122 142 151 158 156 154 168 171 167 161 148 134 147 172 184 197 209 225 240 173 124 129 136 144 149 160 151 123 192 200 187 210 270 18
144 101 67 77 106 144 150 158 159 148 139 131 145 146 88 147 155 166 170 163 167 175 178 175 175 167 152 155 175 191 198 212 232 219 188 220 204 146 159 168 193 226 250 238 236 236 252 282 316
92 84 72 142 148 83 94 164 153 125 142 136 113 111 101 130 156 152 163 162 161 189 189 189 192 195 190 187 194 201 217 223 226 216 234 257 270 238 208 225 268 284 257 255 248 266 264 274 292
102 81 154 135 138 117 173 169 156 139 136 164 139 102 143 145 143 150 156 159 156 162 215 214 214 218 224 220 220 220 226 222 224 228 231 249 270 266 256 257 270 282 274 276 269 273 275 278 285
49 96 110 194 171 187 164 164 158 140 140 145 137 164 177 163 153 159 168 177 190 202 221 227 235 239 244 248 254 257 258 252 239 240 248 256 261 265 270 272 277 282 291 294 288 282 281 283 288
346 66 147 179 160 174 166 137 154 141 143 175 183 157 148 154 157 164 175 184 193 197 202 211 223 231 240 240 244 246 253 260 262 259 264 269 271 271 274 278 280 283 285 288 290 291 291 289 294
67 90 184 178 187 163 162 152 156 150 148 168 165 162 161 167 164 168 175 178 189 193 195 199 210 223 237 240 244 247 252 258 265 269 269 273 277 277 276 275 276 277 280 281 282 287 294 297 299
15 117 186 92 163 155 145 141 147 144 224 195 182 172 173 177 177 179 178 180 172 187 203 205 214 225 234 240 248 250 260 272 280 285 288 283 278 279 279 279 277 277 278 278 281 285 292 294 299
66 83 60 81 90 130 143 145 146 177 188 217 197 187 183 188 190 188 189 183 184 191 197 211 222 235 241 244 251 257 264 272 280 287 285 286 288 283 281 279 278 276 275 273 275 280 286 291 293
39 5 50 75 84 105 133 108 167 219 252 200 194 194 195 201 204 204 209 210 212 216 214 222 236 245 245 249 255 263 277 281 286 283 284 286 287 287 285 283 278 276 275 275 274 276 279 284 288
162 18 7 353 63 90 111 132 151 224 225 203 197 202 206 211 216 217 218 220 229 236 233 235 247 253 246 249 257 271 276 282 281 283 287 287 289 289 286 281 279 277 276 275 275 274 275 277 279
147 115 26 323 288 133 127 319 239 198 213 210 204 209 214 220 224 227 235 241 249 257 257 246 256 255 248 247 257 267 277 278 279 283 283 282 282 285 285 283 277 274 275 277 275 275 274 274 275
91 49 100 275 168 280 143 253 261 230 214 223 217 215 223 229 232 238 241 248 250 253 251 248 252 250 247 252 262 271 278 277 277 279 279 278 276 276 275 275 277 273 271 274 274 275 276 275 275
7 154 171 302 209 123 149 240 275 233 220 230 230 232 238 241 242 246 248 250 252 254 251 247 250 249 250 256 266 271 276 279 282 279 279 279 277 275 272 269 272 271 268 268 273 273 275 279 283
179 181 221 206 193 184 158 248 258 237 211 240 248 248 249 253 253 255 256 258 253 255 252 250 249 249 253 257 262 272 277 280 277 278 280 281 278 274 268 265 266 270 270 271 271 273 274 275 278
148 103 190 278 283 206 223 234 260 264 254 259 259 261 262 260 266 262 258 248 250 252 250 249 249 248 253 259 268 279 280 277 278 281 283 282 277 269 261 257 256 263 261 271 272 273 271 275 275
173 164 231 290 297 184 283 255 256 266 241 258 267 269 265 263 261 256 255 258 261 252 252 249 245 245 249 259 273 276 279 279 281 285 285 283 279 270 257 251 252 257 259 262 265 269 273 272 274
182 198 174 230 328 288 320 271 231 259 243 256 260 265 268 265 265 259 255 262 260 254 253 247 243 242 248 258 270 275 275 278 283 283 282 281 278 272 259 253 256 254 258 265 267 269 273 273 276
228 184 165 163 52 250 36 290 265 286 276 228 268 265 263 265 264 264 264 258 258 259 254 247 245 246 250 258 269 276 280 282 284 285 283 279 271 263 257 256 253 258 260 259 261 267 272 272 272
222 155 173 168 196 343 219 295 271 5 292 270 246 259 263 270 277 275 272 269 269 261 260 247 244 245 251 263 272 278 280 283 284 283 281 276 271 263 256 255 254 257 260 264 265 262 263 258 263
161 99 59 48 97 271 190 187 209 189 207 268 266 283 287 290 293 288 281 270 261 255 250 240 238 243 254 266 273 276 280 281 284 283 279 273 269 264 262 264 263 262 263 256 260 261 264 259 267
144 124 60 6 334 237 325 195 263 303 277 227 277 294 305 303 303 300 310 278 254 245 241 236 237 245 256 265 271 276 277 281 283 283 278 269 261 257 260 264 272 263 270 257 268 263 268 265 267
189 163 161 199 206 266 38 234 260 231 284 288 287 301 314 320 314 304 306 293 260 244 238 237 243 251 258 268 272 274 277 278 279 280 278 265 265 265 263 266 261 271 268 264 265 265 268 262 260
181 218 160 96 30 52 231 286 288 295 277 290 296 310 326 341 345 339 314 297 264 247 245 249 254 259 267 269 269 269 267 269 270 270 268 264 263 263 262 263 264 265 266 267 264 260 255 252 250
168 158 127 74 245 265 260 259 235 294 291 319 311 334 328 342 351 353 342 319 287 267 259 257 261 267 272 270 268 266 266 268 268 267 265 262 261 262 261 262 260 260 259 254 248 244 242 240 240
153 203 215 165 170 196 276 254 214 228 245 271 298 344 338 347 358 352 342 323 298 277 268 268 272 279 278 274 270 266 265 266 267 266 266 264 262 262 260 258 256 252 249 247 245 244 243 243 241
235 229 205 194 247 246 232 262 187 210 226 196 215 330 338 355 11 8 344 326 308 296 280 278 280 285 285 277 268 264 263 263 263 264 264 262 260 256 253 250 247 245 246 248 249 248 246 242 239